DW7251 Weather Reports


Display with metric or nautical units.
time (UTC)temp
F
wind
direction
speed
MPH
gust
MPH
rain 1hr
in
rain 24hr
in
rain mn
in
humidity
%
barometer
mb
20260903231833 55 284 2.0 8.0 0.00 0.03 0.00 68 1019.2
20260903231333 55 258 2.0 7.0 0.00 0.03 0.00 69 1019.1
20260903230816 54 9 1.0 7.0 0.00 0.03 0.00 69 1019.3
20260903230325 54 302 1.0 7.0 0.00 0.03 0.00 69 1019.3
20260903225157 54 339 1.0 5.0 0.00 0.03 0.00 71 1019.2
20260903224639 53 35 1.0 5.0 0.00 0.03 0.00 72 1019.3
20260903224147 53 340 0.0 4.0 0.00 0.03 0.00 73 1019.3
20260903223646 53 354 0.0 7.0 0.00 0.03 0.00 73 1019.3
20260903223133 52 338 0.0 7.0 0.00 0.03 0.00 74 1019.1
20260903222631 52 339 1.0 7.0 0.00 0.03 0.00 74 1019.1
20260903222141 51 33 0.0 7.0 0.00 0.03 0.00 74 1019.0
20260903221622 51 45 0.0 3.0 0.00 0.03 0.00 75 1018.9
20260903221102 50 13 0.0 4.0 0.00 0.03 0.00 76 1018.8
20260903220548 50 46 0.0 4.0 0.00 0.03 0.00 77 1018.8
20260903220036 49 358 0.0 4.0 0.00 0.03 0.00 78 1018.7
20260903214915 48 11 0.0 3.0 0.00 0.03 0.00 81 1018.7
20260903214425 47 7 0.0 1.0 0.00 0.03 0.00 82 1018.7
20260903213911 47 68 0.0 2.0 0.00 0.03 0.00 83 1018.6
20260903213415 46 35 0.0 2.0 0.00 0.03 0.00 83 1018.6
20260903212910 46 29 0.0 2.0 0.00 0.03 0.00 83 1018.4
20260903212413 46 347 0.0 0.0 0.00 0.03 0.00 83 1018.4
20260903211909 46 354 0.0 2.0 0.00 0.03 0.00 83 1018.4
20260903210804 45 33 0.0 0.0 0.00 0.03 0.00 83 1018.4
20260903210259 45 349 0.0 0.0 0.00 0.03 0.00 83 1018.3
20260903205742 45 28 0.0 0.0 0.00 0.03 0.00 83 1018.2
20260903205244 45 357 0.0 1.0 0.00 0.03 0.00 83 1018.2
20260903204726 45 349 0.0 2.0 0.00 0.03 0.00 84 1018.2
20260903203602 45 25 0.0 1.0 0.00 0.03 0.00 84 1018.1
20260903203109 45 332 0.0 1.0 0.00 0.03 0.00 84 1018.1
20260903201931 45 41 0.0 0.0 0.00 0.03 0.00 84 1018.0
20260903201416 45 52 0.0 1.0 0.00 0.03 0.00 84 1018.0
20260903200924 45 37 0.0 1.0 0.00 0.03 0.00 83 1018.0
20260903195157 45 32 0.0 0.0 0.00 0.03 0.00 82 1017.9
20260903194653 46 21 0.0 0.0 0.00 0.03 0.00 82 1017.9
20260903194138 46 10 0.0 0.0 0.00 0.03 0.00 82 1017.9
20260903193626 46 44 0.0 0.0 0.00 0.03 0.00 82 1018.0
20260903192454 46 355 0.0 1.0 0.00 0.03 0.00 82 1018.0
20260903191959 46 35 0.0 2.0 0.00 0.03 0.00 82 1017.9
20260903191452 46 21 0.0 0.0 0.00 0.03 0.00 81 1017.9
20260903190940 46 32 0.0 1.0 0.00 0.03 0.00 81 1017.9
20260903190447 47 33 0.0 0.0 0.00 0.03 0.00 80 1017.9
20260903185927 47 37 0.0 0.0 0.00 0.03 0.00 79 1017.9
20260903185422 48 30 0.0 0.0 0.00 0.03 0.00 79 1017.8
20260903184912 48 321 0.0 1.0 0.00 0.03 0.00 80 1017.8
20260903184359 48 314 0.0 0.0 0.00 0.03 0.00 80 1017.8
20260903183855 48 19 0.0 2.0 0.00 0.03 0.00 81 1017.8
20260903183351 48 328 0.0 2.0 0.00 0.03 0.00 81 1017.9
20260903182211 47 357 0.0 0.0 0.00 0.03 0.00 81 1017.8
20260903181719 47 35 0.0 0.0 0.00 0.03 0.00 81 1017.8
20260903181223 48 295 0.0 1.0 0.00 0.03 0.00 81 1017.7
20260903180058 47 300 0.0 4.0 0.00 0.03 0.00 83 1017.7
20260903175549 47 309 0.0 0.0 0.00 0.03 0.00 83 1017.8
20260903175029 47 13 0.0 0.0 0.00 0.03 0.00 83 1017.7
20260903173910 47 307 0.0 0.0 0.00 0.03 0.00 83 1017.8
20260903173418 47 13 0.0 0.0 0.00 0.03 0.00 83 1017.8
20260903172918 48 25 0.0 0.0 0.00 0.03 0.00 83 1017.8
20260903172423 48 2 0.0 0.0 0.00 0.03 0.00 83 1017.8
20260903171933 48 276 0.0 2.0 0.00 0.03 0.00 84 1017.8
20260903170159 48 42 0.0 0.0 0.00 0.03 0.00 84 1018.0
20260903165654 48 326 0.0 0.0 0.00 0.03 0.00 84 1018.1
20260903165143 48 4 0.0 2.0 0.00 0.03 0.00 84 1018.1
20260903164650 48 352 0.0 2.0 0.00 0.03 0.00 84 1018.1
20260903164148 48 16 0.0 0.0 0.00 0.03 0.00 84 1018.2
20260903163004 48 11 0.0 0.0 0.00 0.03 0.00 84 1018.3
20260903162446 48 33 0.0 0.0 0.00 0.03 0.00 84 1018.3
20260903161941 48 39 0.0 0.0 0.00 0.03 0.00 84 1018.4
20260903161435 48 35 0.0 0.0 0.00 0.03 0.00 84 1018.4
20260903160928 48 14 0.0 0.0 0.00 0.03 0.00 83 1018.5
20260903160410 49 35 0.0 0.0 0.00 0.03 0.00 83 1018.5
20260903155911 49 35 0.0 2.0 0.00 0.03 0.00 83 1018.5
20260903155354 49 25 0.0 2.0 0.00 0.03 0.00 83 1018.6
20260903154840 49 25 0.0 2.0 0.00 0.03 0.00 82 1018.5
20260903154325 49 347 0.0 3.0 0.00 0.03 0.00 81 1018.6
20260903153814 50 38 0.0 2.0 0.00 0.03 0.00 81 1018.6
20260903153315 50 44 0.0 2.0 0.00 0.03 0.00 81 1018.6
20260903152820 50 30 0.0 1.0 0.00 0.03 0.00 81 1018.6
20260903152325 51 23 0.0 0.0 0.00 0.03 0.00 81 1018.6
20260903151152 51 26 0.0 1.0 0.00 0.03 0.00 82 1018.6
20260903150639 51 1 0.0 2.0 0.00 0.03 0.00 81 1018.6
20260903145518 51 332 0.0 1.0 0.00 0.03 0.00 81 1018.6
20260903145011 52 21 0.0 1.0 0.00 0.03 0.00 81 1018.6
20260903144512 52 324 0.0 0.0 0.00 0.03 0.00 81 1018.6
20260903144017 52 321 0.0 3.0 0.00 0.03 0.00 80 1018.7
20260903142838 52 342 0.0 0.0 0.00 0.03 0.00 81 1018.7
20260903142318 52 279 0.0 3.0 0.00 0.03 0.00 81 1018.7
20260903141810 52 348 0.0 3.0 0.00 0.03 0.00 81 1018.7
20260903141313 52 345 0.0 3.0 0.00 0.03 0.00 81 1018.6
20260903140803 52 320 0.0 1.0 0.00 0.03 0.00 81 1018.7
20260903140313 52 0 0.0 3.0 0.00 0.03 0.00 81 1018.8
20260903135807 52 272 0.0 3.0 0.00 0.03 0.03 81 1018.8
20260903134659 52 32 0.0 3.0 0.00 0.03 0.03 81 1018.9
20260903134201 52 359 0.0 0.0 0.00 0.03 0.03 80 1018.8
20260903133705 52 279 0.0 0.0 0.00 0.03 0.03 80 1018.7
20260903133214 52 317 0.0 1.0 0.00 0.03 0.03 80 1018.7
20260903132656 53 326 0.0 1.0 0.00 0.03 0.03 80 1018.8
20260903132143 53 19 0.0 4.0 0.00 0.03 0.03 80 1018.8
20260903131641 53 308 0.0 4.0 0.00 0.03 0.03 80 1018.9
20260903131128 53 316 0.0 4.0 0.00 0.03 0.03 79 1018.9
20260903130611 53 324 0.0 3.0 0.00 0.03 0.03 80 1018.9
20260903130104 53 320 0.0 3.0 0.00 0.03 0.03 79 1018.9
20260903125550 53 352 0.0 2.0 0.00 0.03 0.03 79 1018.9
20260903125043 53 4 0.0 1.0 0.00 0.03 0.03 79 1018.9
20260903124552 53 278 0.0 5.0 0.00 0.03 0.03 79 1018.8
20260903124056 54 302 1.0 5.0 0.00 0.03 0.03 79 1018.8
20260903123602 54 302 1.0 5.0 0.00 0.03 0.03 79 1018.8
20260903123051 54 288 1.0 4.0 0.00 0.03 0.03 79 1018.8
20260903122543 54 277 1.0 4.0 0.00 0.03 0.03 79 1018.9
20260903122036 54 290 0.0 5.0 0.00 0.03 0.03 79 1018.9
20260903121534 54 295 0.0 5.0 0.00 0.03 0.03 79 1018.7
20260903121025 54 318 0.0 5.0 0.00 0.03 0.03 79 1018.7
20260903120533 54 319 0.0 5.0 0.00 0.03 0.03 79 1018.6
20260903120024 55 302 1.0 5.0 0.00 0.03 0.03 80 1018.6
20260903115516 55 278 1.0 5.0 0.00 0.03 0.03 79 1018.5
20260903114355 54 262 0.0 4.0 0.00 0.03 0.03 80 1018.5
20260903113842 54 264 0.0 4.0 0.00 0.03 0.03 80 1018.5
20260903113328 54 300 0.0 4.0 0.00 0.03 0.03 80 1018.4
20260903112825 55 285 0.0 4.0 0.00 0.03 0.03 80 1018.3
20260903112316 55 321 0.0 5.0 0.00 0.03 0.03 80 1018.2
20260903111159 55 325 0.0 5.0 0.00 0.03 0.03 80 1018.0
20260903110656 55 49 1.0 5.0 0.00 0.03 0.03 80 1018.0
20260903110159 55 227 1.0 5.0 0.00 0.03 0.03 80 1018.0
20260903105656 55 345 0.0 5.0 0.00 0.03 0.03 80 1018.0
20260903105150 55 307 0.0 4.0 0.00 0.03 0.03 80 1018.0
20260903104658 55 308 0.0 5.0 0.00 0.03 0.03 80 1017.9
20260903104203 55 90 0.0 5.0 0.00 0.03 0.03 81 1017.7
20260903103653 55 16 0.0 5.0 0.00 0.03 0.03 81 1017.6
20260903103144 55 214 0.0 5.0 0.00 0.03 0.03 81 1017.6
20260903102642 55 321 0.0 5.0 0.00 0.03 0.03 81 1017.7
20260903100910 55 43 0.0 5.0 0.00 0.03 0.03 81 1017.5
20260903100416 55 359 1.0 5.0 0.00 0.03 0.03 81 1017.4
20260903095921 55 89 1.0 5.0 0.00 0.03 0.03 81 1017.3
20260903095422 55 51 0.0 3.0 0.00 0.03 0.03 82 1017.2
20260903094906 55 321 0.0 3.0 0.00 0.03 0.03 82 1017.1
20260903094405 56 314 0.0 3.0 0.00 0.03 0.03 82 1017.0
20260903093849 56 279 0.0 3.0 0.00 0.03 0.03 82 1016.9
20260903093344 56 275 0.0 3.0 0.00 0.03 0.03 81 1016.8
20260903092206 56 279 0.0 4.0 0.00 0.03 0.03 80 1016.7
20260903091102 56 248 0.0 2.0 0.00 0.03 0.03 80 1016.6
20260903090558 56 262 0.0 1.0 0.00 0.03 0.03 79 1016.6
20260903090051 56 262 0.0 4.0 0.00 0.03 0.03 79 1016.5
20260903085558 56 44 0.0 3.0 0.00 0.03 0.03 79 1016.4
20260903085043 56 314 0.0 6.0 0.00 0.03 0.03 79 1016.3
20260903083916 56 40 0.0 6.0 0.00 0.03 0.03 78 1016.0
20260903083357 56 68 0.0 6.0 0.00 0.03 0.03 78 1015.9
20260903082859 56 64 0.0 4.0 0.00 0.03 0.03 78 1015.8
20260903082407 56 344 0.0 2.0 0.00 0.03 0.03 78 1015.9
20260903080628 57 269 0.0 5.0 0.00 0.03 0.03 78 1015.6
20260903080117 57 28 0.0 5.0 0.00 0.03 0.03 77 1015.6
20260903075616 57 149 0.0 2.0 0.00 0.03 0.03 77 1015.4
20260903073816 58 326 0.0 5.0 0.00 0.03 0.03 76 1015.2
20260903073325 58 22 0.0 5.0 0.00 0.03 0.03 76 1015.2
20260903072153 59 30 1.0 5.0 0.00 0.03 0.03 75 1014.9
20260903071639 59 63 1.0 5.0 0.00 0.03 0.03 74 1014.8
20260903070453 60 38 1.0 6.0 0.00 0.03 0.03 73 1014.6
20260903065942 60 346 1.0 6.0 0.00 0.03 0.03 73 1014.5
20260903065425 60 288 1.0 6.0 0.00 0.03 0.03 72 1014.4
20260903064931 61 327 1.0 6.0 0.00 0.03 0.03 72 1014.3
20260903064439 61 337 0.0 5.0 0.00 0.03 0.03 72 1014.4
20260903063945 61 21 0.0 5.0 0.00 0.03 0.03 73 1014.2
20260903063439 61 269 0.0 5.0 0.00 0.03 0.03 73 1014.2
20260903062934 61 70 1.0 5.0 0.00 0.03 0.03 72 1014.1
20260903062417 61 112 1.0 4.0 0.00 0.03 0.03 71 1013.9
20260903061316 61 69 0.0 3.0 0.00 0.03 0.03 70 1013.9
20260903060802 62 54 0.0 3.0 0.00 0.03 0.03 70 1013.9
20260903060302 62 28 0.0 3.0 0.00 0.03 0.03 70 1013.8
20260903055754 61 66 0.0 3.0 0.00 0.03 0.03 72 1013.7
20260903055241 61 342 0.0 3.0 0.00 0.03 0.03 72 1013.6
20260903054112 61 279 0.0 3.0 0.00 0.03 0.03 72 1013.3
20260903053600 61 279 0.0 3.0 0.00 0.03 0.03 72 1013.3
20260903053104 62 325 0.0 2.0 0.00 0.03 0.03 71 1013.3
20260903052550 62 247 0.0 2.0 0.00 0.03 0.03 71 1013.3
20260903052040 63 326 0.0 2.0 0.00 0.03 0.03 70 1013.3
20260903051538 63 32 0.0 2.0 0.00 0.03 0.03 70 1013.3
20260903051042 63 193 0.0 4.0 0.00 0.03 0.03 71 1013.3
20260903050547 63 167 0.0 4.0 0.00 0.03 0.03 71 1013.2
20260903050034 63 307 0.0 4.0 0.00 0.03 0.03 71 1013.2
20260903043550 61 25 2.0 7.0 0.00 0.03 0.03 72 1013.0
20260903043033 61 309 2.0 9.0 0.00 0.03 0.03 72 1013.0
20260903042541 61 61 2.0 9.0 0.00 0.03 0.03 73 1012.8
20260903042034 61 311 3.0 9.0 0.00 0.03 0.03 73 1012.7
20260903041535 61 33 3.0 9.0 0.00 0.03 0.03 73 1012.6
20260903041019 61 346 3.0 9.0 0.00 0.03 0.03 74 1012.6
20260903040518 61 328 4.0 9.0 0.00 0.03 0.03 74 1012.5
20260903040027 61 321 4.0 9.0 0.00 0.03 0.03 72 1012.5
20260903035527 60 25 4.0 8.0 0.00 0.03 0.03 73 1012.4
20260903033802 60 263 2.0 7.0 0.00 0.03 0.03 76 1012.4
20260903033246 60 241 2.0 7.0 0.00 0.03 0.03 76 1012.4
20260903032753 60 42 1.0 7.0 0.00 0.03 0.03 77 1012.4
20260903032258 60 340 1.0 7.0 0.00 0.03 0.03 77 1012.3
20260903031751 60 306 1.0 7.0 0.00 0.03 0.03 78 1012.4
20260903031254 60 298 1.0 7.0 0.00 0.03 0.03 80 1012.4
20260903030106 59 262 2.0 8.0 0.00 0.03 0.03 81 1012.5
20260903025559 58 286 2.0 8.0 0.00 0.03 0.03 80 1012.5
20260903023813 57 296 4.0 10.0 0.00 0.03 0.03 82 1012.4
20260903022638 56 267 4.0 15.0 0.00 0.03 0.03 82 1012.2
20260903022123 56 255 6.0 15.0 0.00 0.03 0.03 82 1012.3
20260903021618 56 227 8.0 15.0 0.00 0.03 0.03 82 1012.3
20260903021115 56 298 7.0 15.0 0.00 0.03 0.03 82 1012.3
20260903020609 55 249 6.0 12.0 0.00 0.03 0.03 83 1012.2
20260903020119 55 268 5.0 12.0 0.00 0.03 0.03 84 1012.1
20260903015611 55 249 5.0 10.0 0.03 0.03 0.03 85 1012.1
20260903014506 55 72 5.0 10.0 0.03 0.03 0.03 85 1012.1
20260903014009 56 268 3.0 17.0 0.07 0.02 0.02 82 1012.2
20260903013516 56 268 3.0 17.0 0.07 0.02 0.02 82 1012.2
20260903013020 56 291 4.0 17.0 0.07 0.01 0.02 82 1012.2
20260903012508 58 125 3.0 17.0 0.00 0.01 0.01 81 1012.2
20260903012013 59 142 3.0 11.0 0.00 0.00 0.00 78 1012.0
20260903011505 60 255 3.0 11.0 0.00 0.00 0.00 76 1011.5
20260903011009 60 274 2.0 10.0 0.00 0.00 0.00 75 1011.4
20260903010458 60 283 3.0 10.0 0.00 0.00 0.00 77 1011.4
20260903005953 60 293 4.0 10.0 0.00 0.00 0.00 78 1011.5
20260903004824 58 284 0.0 5.0 0.00 0.00 0.00 82 1011.5
20260903004317 58 277 1.0 5.0 0.00 0.00 0.00 83 1011.4
20260903003804 58 282 1.0 9.0 0.00 0.00 0.00 83 1011.4
20260903002705 57 261 4.0 11.0 0.00 0.00 0.00 82 1011.4
20260903002204 57 267 4.0 11.0 0.00 0.00 0.00 81 1011.3
20260903001650 57 259 5.0 11.0 0.00 0.00 0.00 80 1011.3
20260903001135 58 317 5.0 11.0 0.00 0.00 0.00 79 1011.3
20260903000013 58 333 2.0 9.0 0.00 0.00 0.00 75 1011.1
20260902235519 58 333 2.0 9.0 0.00 0.00 0.00 75 1011.1
20260902235015 57 291 2.0 9.0 0.00 0.00 0.00 75 1011.1
20260902234508 57 282 2.0 8.0 0.00 0.00 0.00 75 1011.1
20260902234008 57 308 2.0 8.0 0.00 0.00 0.00 74 1010.8
20260902233509 57 32 2.0 10.0 0.00 0.00 0.00 74 1010.7
20260902233010 57 43 1.0 10.0 0.00 0.00 0.00 73 1010.8
20260902232513 56 353 2.0 10.0 0.00 0.00 0.00 73 1010.6